Flag for South Africa Weather past 2 weeks in Port Elizabeth, South Africa

Now
61 °F

Passing clouds.


Feels Like: 61 °F
Forecast: 48 / 65 °F
Wind: 9 mph from South

Location: Port Elizabeth Airport

Current Time: Aug 30, 2014 at 12:11:23 PM

Latest Report: Aug 30, 2014 at 11:00 AM


Visibility: N/A

Pressure: 30.54 "Hg

Humidity: 52%

Dew point: 43 °F

Location of Port ElizabethLocation

Historic Weather in Port Elizabeth — Graph

°F

Port Elizabeth temperature yesterday

Maximum temperature yesterday: 61 °F (at 1:00 PM)
Minimum temperature yesterday: 46 °F (at 12:00 AM)
Average temperature yesterday: 53 °F

Past Weeks' High & Low Weather Summary

 TemperatureHumidityPressure
High84 °F (Aug 18, 11:00 AM)94% (Aug 15, 8:00 PM)30.54 "Hg (Aug 15, 8:00 PM)
Low46 °F (Aug 16, 6:00 AM)31% (Aug 18, 11:00 AM)29.74 "Hg (Aug 27, 5:01 AM)
Average59 °F72%30.05 "Hg
* Reported Aug 15 11:00 AM — Aug 30 11:00 AM, Port Elizabeth, Weather by CustomWeather, © 2014

Note: Actual official high and low records may vary slightly from our data, if they occured in-between our weather recording intervals... More about our weather records

Advertising

Port Elizabeth weather history for previous 24 hours

 ConditionsComfort  
Time TempWeatherWind HumidityBarometerVisibility
11:00 AM
Aug 30
61 °FPassing clouds.9 mph52%30.54 "HgN/A
10:00 AM61 °FPassing clouds.10 mph52%30.54 "HgN/A
9:00 AM57 °FPassing clouds.6 mph63%30.54 "HgN/A
8:00 AM55 °FPassing clouds.8 mph59%30.54 "HgN/A
7:00 AM54 °FPassing clouds.6 mph67%30.51 "HgN/A
6:00 AM54 °FScattered clouds.6 mph67%30.51 "HgN/A
5:00 AM54 °FPassing clouds.9 mph77%30.48 "HgN/A
4:00 AM54 °FLight rain. Passing clouds.12 mph72%30.48 "HgN/A
3:00 AM54 °FPassing clouds.9 mph77%30.48 "HgN/A
2:00 AM55 °FPassing clouds.8 mph55%30.48 "HgN/A
12:00 AM54 °FClear.6 mph67%30.45 "Hg10 mi
10:00 PM
Aug 29
55 °FClear.16 mph63%30.45 "Hg10 mi
9:00 PM55 °FClear.12 mph55%30.45 "Hg10 mi
8:00 PM55 °FPassing clouds.12 mph59%30.42 "HgN/A
7:00 PM57 °FPassing clouds.12 mph51%30.39 "HgN/A
6:00 PM55 °FPassing clouds.12 mph67%30.39 "HgN/A
5:00 PM57 °FPartly cloudy.13 mph63%30.36 "HgN/A
4:00 PM59 °FPartly sunny.17 mph63%30.33 "HgN/A
3:01 PM57 °FSprinkles. Scattered clouds.20 mph72%30.30 "HgN/A
2:00 PM57 °FSprinkles. Partly sunny.18 mph72%30.30 "Hg5 mi
1:00 PM61 °FScattered clouds.22 mph59%30.30 "HgN/A
12:49 PM59 °FScattered clouds.23 mph63%30.30 "HgN/A
12:00 PM59 °FScattered clouds.15 mph68%30.30 "HgN/A
Weather by CustomWeather, © 2014

See weather overviewHow to use our weather pages